Regional Weather Roundup
Issued by NWS State College, PA

Home | Current Version | Previous Version | Graphics & Text | Print | Product List | Glossary On
Versions: 1 2 3 4 5 6 7 8 9 10 11 12 13 14 15 16 17 18 19 20 21 22 23 24 25 26 27 28 29 30 31 32 33 34 35 36 37 38 39 40 41 42 43 44 45 46 47 48 49 50
000
ASUS41 KCTP 301803
RWRCTP

REGIONAL WEATHER ROUNDUP
NATIONAL WEATHER SERVICE STATE COLLEGE PA
200 PM EDT SAT APR 30 2016

Note: "fair" indicates few or no clouds below 12,000 feet with no
significant weather and/or obstructions to visibility.

* = STATION THAT DOES NOT REPORT PRECIPITATION /E.G. RAIN...SNOW...ETC/
    THUNDER OR FOG.

PAZ002>004-007>009-013>016-020>023-029>032-301900-
WESTERN PENNSYLVANIA

CITY           SKY/WX    TMP DP  RH WIND       PRES   REMARKS
ERIE           CLOUDY    55  45  68 N10       30.11F
MEADVILLE      CLOUDY    54  43  66 VRB5      30.10F
FRANKLIN*      CLOUDY    57  43  58 SE9       30.12F
NEW CASTLE     MOCLDY    62  47  57 VRB6      30.09F
BEAVER COUNTY  NOT AVBL
BUTLER*        CLOUDY    61  46  59 NE3       30.12R
PITTSBURGH INT CLOUDY    65  45  48 VRB5      30.06F
PITTSBURGH     CLOUDY    65  46  50 CALM      30.05F
INDIANA*       MOSUNNY   61  46  59 SE7G15    30.13F
LATROBE        PTSUNNY   64  48  55 E7        30.08F
WASHINGTON CO* PTSUNNY   64  48  55 E8        30.06F
$$

PAZ004>006-010>012-017>019-024>028-033>037-041-042-045-046-049>053-301900-
CENTRAL PENNSYLVANIA

CITY           SKY/WX    TMP DP  RH WIND       PRES   REMARKS
BRADFORD       CLOUDY    48  40  73 SE10      30.14F
DUBOIS         CLOUDY    51  42  71 SE8       30.13R
CLEARFIELD     CLOUDY    51  42  71 NE9       30.15S
JOHNSTOWN      CLOUDY    50  42  74 SE9       30.12S
ALTOONA        CLOUDY    50  45  83 SE8       30.16F
STATE COLLEGE  CLOUDY    52  45  76 NE7       30.17F
WILLIAMSPORT   CLOUDY    56  41  57 E3        30.18S
SELINSGROVE    CLOUDY    56  42  59 CALM      30.19F
FT INDIANTOWN  CLOUDY    55  42  61 S6        30.19S
CAPITAL CITY   CLOUDY    58  43  57 E6        30.20S
HARRISBURG     CLOUDY    59  45  59 VRB3      30.20S
YORK           CLOUDY    57  47  69 E3        30.19S
$$

PAZ038>040-043-044-047-048-054-055-060>062-067>071-301900-
EASTERN PENNSYLVANIA

CITY           SKY/WX    TMP DP  RH WIND       PRES   REMARKS
SCRANTON       CLOUDY    54  40  59 CALM      30.18S
MOUNT POCONO   CLOUDY    50  39  66 VRB6      30.17S
ALLENTOWN      CLOUDY    58  42  55 SW9       30.20S
QUAKERTOWN*    MOCLDY    55  41  58 CALM      30.22R
READING        CLOUDY    57  40  52 CALM      30.20R
LANCASTER      CLOUDY    57  43  59 SE5       30.20S
COATESVILLE    CLOUDY    55  43  62 MISG      30.22R
POTTSTOWN      CLOUDY    55  41  59 CALM      30.22S
BLUE BELL      CLOUDY    55  41  58 SE3       30.20S
DOYLESTOWN     CLOUDY    54  40  59 SE3       30.20S
WILLOW GROVE   NOT AVBL
NORTH PHILA    CLOUDY    60  43  53 VRB3      30.22S
PHILADELPHIA   PTSUNNY   63  42  46 SE5       30.22S
$$




USA.gov is the U.S. government's official web portal to all federal, state and local government web resources and services.